STARLINK-32355, 61634

Orbit data source: Space-Track

STARLINK-32355, 61634 is a payload satellite owned by SpaceX/Seattle (US) in LEO that was launched on Wed, 23 Oct 2024 UTC via an FALCON 9 launch vehicle from the Air Force Eastern Test Range (AFETR). Payload-class satellites include a variety of spacecraft equipped with specific instruments for various scientific and technological missions. These include communications satellites like Starlink; space stations such as the ISS; scientific satellites like the Hubble; Earth observation satellites from companies like Planet Labs, Umbra, and HawkEye 360; GPS; miniature CubeSats for education and research; and military/defense satellites.

Loading next visibility...
Identifier
61634, 2024-191P
Orbit
LEO
Last TLE update
7 hours ago
Origin
Manufacturer
SpaceX/Seattle
Mission
Operational Commercial Communications
Bus & Motor
STARLINK V2M, Unknown motor
Mass
730 kg wet, ~700 kg dry
Launch date (UTC)
2024-10-23 (8 months ago)
Launch vehicle
FALCON 9
Launch site
Air Force Eastern Test Range (AFETR)
Object type
Payload
Rocket body
Debris
Shape & HBR
Box + 2 Pan, 29 m
Radar Cross Section
36.964 m², Large (>1 m²)

Expand to show TLE details & history

TLE from 7 hours ago
0 STARLINK-32355
1 61634U 24191P   25183.92015944  .00000519  00000-0  28386-4 0  9996
2 61634  43.0015 128.8573 0001130 270.9568  89.1154 15.27574927 39291
Epoch: 2025-07-02T22:05Z
TLE epoch observation values (Epoch: 2025-07-02T22:05:01.775Z)
Latitude
-0.00004°
Longitude
-123.59448°
Altitude
482.828 km
Speed
7.626 km/s
True Right ascension
08h 35m 25s
True Declination
0° 00' 00"
Sunlit
Object was in daylight at epoch
Visualization orbit readout
Latitude
-42.64277°
Longitude
133.79393°
Altitude
495.438 km
Speed
7.618 km/s
Apparent Right ascension
03h 28m 27s
Apparent Declination
-44° 16' 27"
Sunlit
Object is in daylight
Visualization observer readout
Local Sidereal Time
17:15:41
Azimuth
111.218° ESE
Elevation
-69.734°
Doppler factor
1
Orbital elements
Apogee altitude
485.785 km
Perigee altitude
484.234 km
Semi-major axis
6,863.146 km
Eccentricity
0.00011
Inclination
43.0015°
RAAN
128.8573°
Arg. of periapsis
270.9568°
True anomaly
Unknown
Mean anomaly
89.1154°
Eccentric anomaly
Unknown
Mean motion
3.81732 °/min
Orbital period
94.31 mins
BSTAR
0.000028386
Loading maneuver chart data...
Loading SW <> Apogee altitude chart data...
Loading historical data...
Loading historical data...
Loading historical data...
Loading historical data...
Loading historical data...
Loading historical data...
Loading historical data...

STARLINK-32355 Visibility forecast

Observer location: undefined°, undefined°

Span
Click to sort rows by Start time (UTC) header in descending order
Start Az.
Max El. time (UTC)
Max El. Az.
Max El.
End time (UTC)
End Az.
4 mins2025-07-03 06:28:09.632Z249.131° W2025-07-03 06:30:09.632Z213.126° SW15.484°2025-07-03 06:32:09.632Z179.836° S
4 mins2025-07-03 23:25:09.632Z194.725° SSW2025-07-03 23:26:09.632Z166.939° S29.261°2025-07-03 23:29:09.632Z89.837° E
5 mins2025-07-04 01:03:09.632Z266.542° W2025-07-04 01:05:09.632Z313.963° NW42.34°2025-07-04 01:08:09.632Z68.353° E
6 mins2025-07-04 02:42:09.632Z292.261° WNW2025-07-04 02:44:09.632Z334.461° NNW36.988°2025-07-04 02:48:09.632Z82.302° E
6 mins2025-07-04 04:21:09.632Z283.792° WNW2025-07-04 04:24:09.632Z149.338° SSE41.488°2025-07-04 04:27:09.632Z118.204° SE
|